| time (UTC) | temp F | wind direction | speed MPH | gust MPH | rain 1hr in | rain 24hr in | rain mn in | humidity % | barometer mb |
| 20260505204604 | 58 | 212 | 7.0 | 14.0 | 0.11 | 0.14 | 0.14 | 90 | 1003.5 |
| 20260505204058 | 58 | 235 | 9.0 | 20.0 | 0.11 | 0.14 | 0.14 | 90 | 1003.4 |
| 20260505203552 | 58 | 257 | 10.0 | 23.0 | 0.10 | 0.13 | 0.13 | 88 | 1003.5 |
| 20260505203042 | 58 | 236 | 9.0 | 23.0 | 0.10 | 0.13 | 0.13 | 88 | 1003.4 |
| 20260505202536 | 58 | 230 | 8.0 | 20.0 | 0.09 | 0.12 | 0.12 | 88 | 1003.4 |
| 20260505202030 | 58 | 223 | 7.0 | 15.0 | 0.08 | 0.11 | 0.11 | 86 | 1003.1 |
| 20260505201520 | 60 | 250 | 7.0 | 19.0 | 0.07 | 0.10 | 0.10 | 81 | 1003.1 |
| 20260505201014 | 63 | 266 | 7.0 | 19.0 | 0.03 | 0.06 | 0.06 | 74 | 1002.8 |
| 20260505200508 | 64 | 251 | 8.0 | 17.0 | 0.00 | 0.03 | 0.03 | 65 | 1002.7 |
| 20260505195457 | 64 | 257 | 5.0 | 14.0 | 0.00 | 0.03 | 0.03 | 72 | 1002.4 |
| 20260505194955 | 64 | 233 | 6.0 | 15.0 | 0.00 | 0.03 | 0.03 | 77 | 1002.1 |
| 20260505194453 | 64 | 227 | 7.0 | 15.0 | 0.00 | 0.03 | 0.03 | 76 | 1002.1 |
| 20260505193951 | 64 | 230 | 6.0 | 13.0 | 0.01 | 0.03 | 0.03 | 75 | 1001.8 |
| 20260505193451 | 64 | 200 | 6.0 | 17.0 | 0.02 | 0.03 | 0.03 | 78 | 1001.8 |
| 20260505192951 | 64 | 226 | 7.0 | 17.0 | 0.02 | 0.03 | 0.03 | 77 | 1001.9 |
| 20260505192451 | 65 | 227 | 6.0 | 13.0 | 0.02 | 0.03 | 0.03 | 74 | 1001.9 |
| 20260505191951 | 66 | 218 | 6.0 | 12.0 | 0.02 | 0.03 | 0.03 | 66 | 1001.9 |
| 20260505191719 | 66 | 254 | 8.0 | 16.0 | 0.02 | 0.03 | 0.03 | 64 | 1001.8 |
| 20260505190951 | 66 | 248 | 8.0 | 17.0 | 0.02 | 0.03 | 0.03 | 67 | 1002.0 |
| 20260505190451 | 67 | 232 | 7.0 | 17.0 | 0.02 | 0.03 | 0.03 | 66 | 1002.0 |
| 20260505185951 | 66 | 232 | 7.0 | 15.0 | 0.02 | 0.03 | 0.03 | 72 | 1002.1 |
| 20260505185451 | 63 | 267 | 10.0 | 25.0 | 0.02 | 0.03 | 0.03 | 79 | 1002.1 |
| 20260505184950 | 62 | 235 | 12.0 | 27.0 | 0.02 | 0.03 | 0.03 | 77 | 1002.0 |
| 20260505184715 | 63 | 227 | 13.0 | 27.0 | 0.02 | 0.03 | 0.03 | 74 | 1002.4 |
| 20260505183943 | 67 | 234 | 12.0 | 27.0 | 0.01 | 0.02 | 0.02 | 63 | 1002.2 |
| 20260505183442 | 71 | 168 | 13.0 | 27.0 | 0.00 | 0.01 | 0.01 | 47 | 1002.0 |
| 20260505182943 | 71 | 238 | 14.0 | 27.0 | 0.00 | 0.01 | 0.01 | 45 | 1001.5 |
| 20260505182708 | 71 | 200 | 14.0 | 26.0 | 0.00 | 0.01 | 0.01 | 45 | 1001.3 |
| 20260505181942 | 71 | 250 | 17.0 | 30.0 | 0.00 | 0.01 | 0.01 | 45 | 1001.3 |
| 20260505181443 | 72 | 242 | 16.0 | 30.0 | 0.00 | 0.01 | 0.01 | 44 | 1001.3 |
| 20260505180943 | 73 | 240 | 15.0 | 27.0 | 0.00 | 0.01 | 0.01 | 44 | 1001.1 |
| 20260505180443 | 72 | 209 | 15.0 | 30.0 | 0.00 | 0.01 | 0.01 | 44 | 1001.5 |
| 20260505175943 | 73 | 217 | 17.0 | 31.0 | 0.00 | 0.01 | 0.01 | 43 | 1001.5 |
| 20260505175443 | 73 | 222 | 19.0 | 33.0 | 0.00 | 0.01 | 0.01 | 42 | 1001.3 |
| 20260505174943 | 73 | 242 | 17.0 | 37.0 | 0.00 | 0.01 | 0.01 | 43 | 1001.3 |
| 20260505174443 | 72 | 211 | 15.0 | 37.0 | 0.00 | 0.01 | 0.01 | 43 | 1001.1 |
| 20260505173943 | 72 | 236 | 13.0 | 26.0 | 0.00 | 0.01 | 0.01 | 44 | 1001.2 |
| 20260505173442 | 72 | 220 | 14.0 | 28.0 | 0.00 | 0.01 | 0.01 | 44 | 1001.1 |
| 20260505172943 | 73 | 233 | 17.0 | 28.0 | 0.00 | 0.01 | 0.01 | 42 | 1001.1 |
| 20260505172443 | 74 | 242 | 16.0 | 28.0 | 0.00 | 0.01 | 0.01 | 42 | 1001.3 |
| 20260505171941 | 74 | 222 | 15.0 | 29.0 | 0.00 | 0.01 | 0.01 | 42 | 1001.2 |
| 20260505171441 | 74 | 202 | 14.0 | 29.0 | 0.00 | 0.01 | 0.01 | 42 | 1001.3 |
| 20260505170941 | 74 | 243 | 13.0 | 27.0 | 0.00 | 0.01 | 0.01 | 42 | 1001.3 |
| 20260505170440 | 75 | 225 | 14.0 | 26.0 | 0.00 | 0.01 | 0.01 | 41 | 1001.3 |
| 20260505165941 | 75 | 236 | 16.0 | 32.0 | 0.00 | 0.01 | 0.01 | 41 | 1001.3 |
| 20260505165441 | 74 | 213 | 18.0 | 34.0 | 0.00 | 0.01 | 0.01 | 41 | 1001.2 |
| 20260505164941 | 74 | 234 | 14.0 | 34.0 | 0.00 | 0.01 | 0.01 | 42 | 1001.4 |
| 20260505164441 | 74 | 240 | 12.0 | 28.0 | 0.00 | 0.01 | 0.01 | 43 | 1001.5 |
| 20260505163941 | 73 | 244 | 14.0 | 29.0 | 0.00 | 0.01 | 0.01 | 44 | 1001.5 |
| 20260505163441 | 73 | 217 | 15.0 | 29.0 | 0.00 | 0.01 | 0.01 | 44 | 1001.5 |
| 20260505163200 | 74 | 230 | 13.0 | 29.0 | 0.00 | 0.01 | 0.01 | 43 | 1001.7 |
| 20260505162441 | 74 | 223 | 14.0 | 25.0 | 0.00 | 0.01 | 0.01 | 44 | 1001.7 |
| 20260505161934 | 73 | 259 | 16.0 | 23.0 | 0.00 | 0.01 | 0.01 | 44 | 1001.9 |
| 20260505161652 | 73 | 181 | 15.0 | 24.0 | 0.00 | 0.01 | 0.01 | 44 | 1001.9 |
| 20260505160934 | 74 | 247 | 15.0 | 25.0 | 0.00 | 0.01 | 0.01 | 44 | 1002.0 |
| 20260505160431 | 72 | 213 | 14.0 | 28.0 | 0.00 | 0.01 | 0.01 | 47 | 1002.0 |
| 20260505152932 | 72 | 181 | 10.0 | 22.0 | 0.00 | 0.01 | 0.01 | 51 | 1002.2 |
| 20260505152431 | 71 | 179 | 11.0 | 21.0 | 0.00 | 0.01 | 0.01 | 50 | 1002.4 |
| 20260505151931 | 70 | 228 | 12.0 | 23.0 | 0.00 | 0.01 | 0.01 | 51 | 1002.4 |
| 20260505151431 | 70 | 251 | 10.0 | 23.0 | 0.00 | 0.01 | 0.01 | 51 | 1002.4 |
| 20260505150930 | 70 | 213 | 9.0 | 21.0 | 0.00 | 0.01 | 0.01 | 52 | 1002.7 |
| 20260505150431 | 69 | 198 | 11.0 | 21.0 | 0.00 | 0.01 | 0.01 | 54 | 1002.8 |
| 20260505140430 | 66 | 217 | 10.0 | 20.0 | 0.00 | 0.01 | 0.01 | 61 | 1003.7 |
| 20260505130145 | 60 | 238 | 8.0 | 15.0 | 0.00 | 0.01 | 0.01 | 72 | 1003.9 |
| 20260505124918 | 59 | 215 | 8.0 | 18.0 | 0.00 | 0.01 | 0.01 | 71 | 1003.9 |
| 20260505124418 | 60 | 215 | 8.0 | 16.0 | 0.00 | 0.01 | 0.01 | 70 | 1003.8 |
| 20260505123918 | 60 | 207 | 6.0 | 14.0 | 0.00 | 0.01 | 0.01 | 74 | 1003.8 |
| 20260505123419 | 59 | 244 | 5.0 | 14.0 | 0.00 | 0.01 | 0.01 | 73 | 1003.9 |
| 20260505122918 | 58 | 207 | 5.0 | 10.0 | 0.00 | 0.01 | 0.01 | 75 | 1003.9 |
| 20260505122418 | 58 | 214 | 4.0 | 9.0 | 0.00 | 0.01 | 0.01 | 76 | 1003.8 |
| 20260505121920 | 57 | 211 | 5.0 | 9.0 | 0.00 | 0.01 | 0.01 | 76 | 1003.7 |
| 20260505121419 | 56 | 223 | 5.0 | 10.0 | 0.00 | 0.01 | 0.01 | 77 | 1003.8 |
| 20260505120919 | 56 | 226 | 4.0 | 10.0 | 0.00 | 0.01 | 0.01 | 80 | 1003.9 |
| 20260505120417 | 55 | 220 | 4.0 | 7.0 | 0.00 | 0.01 | 0.01 | 81 | 1003.8 |
| 20260505120136 | 54 | 198 | 3.0 | 7.0 | 0.00 | 0.01 | 0.01 | 84 | 1003.8 |
| 20260505115637 | 53 | 223 | 3.0 | 7.0 | 0.00 | 0.01 | 0.01 | 87 | 1003.8 |
| 20260505115142 | 53 | 223 | 3.0 | 7.0 | 0.00 | 0.01 | 0.01 | 87 | 1003.9 |
| 20260505114412 | 52 | 223 | 3.0 | 7.0 | 0.00 | 0.01 | 0.01 | 90 | 1003.8 |
| 20260505113913 | 51 | 231 | 2.0 | 7.0 | 0.01 | 0.01 | 0.01 | 93 | 1003.9 |
| 20260505113412 | 50 | 218 | 1.0 | 6.0 | 0.01 | 0.01 | 0.01 | 95 | 1003.7 |
| 20260505112915 | 50 | 215 | 0.0 | 2.0 | 0.01 | 0.01 | 0.01 | 94 | 1003.8 |
| 20260505112412 | 49 | 215 | 1.0 | 3.0 | 0.01 | 0.01 | 0.01 | 94 | 1003.7 |
| 20260505111910 | 49 | 215 | 1.0 | 4.0 | 0.01 | 0.01 | 0.01 | 94 | 1003.7 |
| 20260505111408 | 49 | 207 | 2.0 | 4.0 | 0.01 | 0.01 | 0.01 | 93 | 1003.7 |
| 20260505110906 | 49 | 205 | 2.0 | 5.0 | 0.01 | 0.01 | 0.01 | 94 | 1003.5 |
| 20260505110406 | 49 | 209 | 2.0 | 5.0 | 0.01 | 0.01 | 0.01 | 94 | 1003.6 |
| 20260505101317 | 49 | 238 | 2.0 | 5.0 | 0.00 | 0.00 | 0.00 | 87 | 1003.8 |
| 20260505100811 | 49 | 238 | 2.0 | 4.0 | 0.00 | 0.00 | 0.00 | 88 | 1003.7 |
| 20260505100305 | 48 | 238 | 1.0 | 4.0 | 0.00 | 0.00 | 0.00 | 88 | 1003.7 |
| 20260505095755 | 48 | 264 | 1.0 | 2.0 | 0.00 | 0.00 | 0.00 | 89 | 1003.7 |
| 20260505095249 | 48 | 265 | 1.0 | 2.0 | 0.00 | 0.00 | 0.00 | 89 | 1003.6 |
| 20260505095004 | 48 | 265 | 1.0 | 2.0 | 0.00 | 0.00 | 0.00 | 88 | 1003.6 |
| 20260505094233 | 48 | 265 | 1.0 | 2.0 | 0.00 | 0.00 | 0.00 | 89 | 1003.6 |
| 20260505093221 | 49 | 266 | 0.0 | 2.0 | 0.00 | 0.00 | 0.00 | 87 | 1003.5 |
| 20260505092713 | 49 | 266 | 1.0 | 3.0 | 0.00 | 0.00 | 0.00 | 85 | 1003.5 |
| 20260505092205 | 50 | 266 | 1.0 | 3.0 | 0.00 | 0.00 | 0.00 | 83 | 1003.5 |
| 20260505091915 | 51 | 255 | 2.0 | 4.0 | 0.00 | 0.00 | 0.00 | 78 | 1003.6 |
| 20260505091149 | 52 | 245 | 2.0 | 6.0 | 0.00 | 0.00 | 0.00 | 74 | 1003.7 |
| 20260505090643 | 52 | 231 | 3.0 | 8.0 | 0.00 | 0.00 | 0.00 | 72 | 1003.9 |
| 20260505090142 | 52 | 259 | 3.0 | 8.0 | 0.00 | 0.00 | 0.00 | 72 | 1003.9 |
| 20260505085627 | 52 | 229 | 3.0 | 5.0 | 0.00 | 0.00 | 0.00 | 72 | 1003.9 |
| 20260505085121 | 51 | 224 | 3.0 | 7.0 | 0.00 | 0.00 | 0.00 | 72 | 1003.8 |
| 20260505084615 | 51 | 223 | 4.0 | 7.0 | 0.00 | 0.00 | 0.00 | 73 | 1003.9 |
| 20260505084110 | 50 | 212 | 3.0 | 7.0 | 0.00 | 0.00 | 0.00 | 74 | 1003.9 |
| 20260505083610 | 49 | 221 | 2.0 | 7.0 | 0.00 | 0.00 | 0.00 | 77 | 1003.9 |
| 20260505083110 | 48 | 308 | 1.0 | 3.0 | 0.00 | 0.00 | 0.00 | 79 | 1003.9 |
| 20260505082608 | 48 | 313 | 1.0 | 4.0 | 0.00 | 0.00 | 0.00 | 79 | 1003.9 |
| 20260505082108 | 48 | 313 | 1.0 | 4.0 | 0.00 | 0.00 | 0.00 | 79 | 1003.9 |
| 20260505081608 | 49 | 209 | 1.0 | 3.0 | 0.00 | 0.00 | 0.00 | 79 | 1003.9 |
| 20260505081106 | 49 | 209 | 1.0 | 3.0 | 0.00 | 0.00 | 0.00 | 78 | 1003.8 |
| 20260505080604 | 49 | 209 | 1.0 | 3.0 | 0.00 | 0.00 | 0.00 | 77 | 1003.8 |
| 20260505075601 | 49 | 210 | 2.0 | 4.0 | 0.00 | 0.00 | 0.00 | 78 | 1004.0 |
| 20260505075058 | 49 | 213 | 1.0 | 4.0 | 0.00 | 0.00 | 0.00 | 78 | 1003.9 |
| 20260505074558 | 48 | 214 | 2.0 | 4.0 | 0.00 | 0.00 | 0.00 | 79 | 1003.9 |
| 20260505074057 | 48 | 213 | 2.0 | 5.0 | 0.00 | 0.00 | 0.00 | 78 | 1003.9 |
| 20260505073556 | 48 | 214 | 3.0 | 5.0 | 0.00 | 0.00 | 0.00 | 79 | 1003.7 |
| 20260505073329 | 47 | 205 | 2.0 | 5.0 | 0.00 | 0.01 | 0.00 | 79 | 1003.7 |
| 20260505072824 | 46 | 202 | 2.0 | 4.0 | 0.00 | 0.01 | 0.00 | 80 | 1003.7 |
| 20260505072052 | 46 | 202 | 2.0 | 4.0 | 0.00 | 0.01 | 0.00 | 79 | 1003.7 |
| 20260505071552 | 47 | 205 | 2.0 | 4.0 | 0.00 | 0.01 | 0.00 | 79 | 1003.7 |
| 20260505071053 | 47 | 209 | 2.0 | 4.0 | 0.00 | 0.01 | 0.00 | 78 | 1003.7 |
| 20260505070820 | 47 | 210 | 1.0 | 4.0 | 0.00 | 0.01 | 0.00 | 78 | 1003.7 |
| 20260505070052 | 47 | 211 | 1.0 | 3.0 | 0.00 | 0.01 | 0.00 | 77 | 1003.7 |
| 20260505065550 | 48 | 212 | 1.0 | 4.0 | 0.00 | 0.01 | 0.00 | 76 | 1003.8 |
| 20260505065050 | 49 | 212 | 1.0 | 4.0 | 0.00 | 0.01 | 0.00 | 75 | 1003.8 |
| 20260505064047 | 50 | 214 | 3.0 | 5.0 | 0.00 | 0.01 | 0.00 | 71 | 1003.8 |
| 20260505063546 | 50 | 215 | 3.0 | 5.0 | 0.00 | 0.01 | 0.00 | 70 | 1003.9 |
| 20260505063046 | 50 | 215 | 3.0 | 6.0 | 0.00 | 0.01 | 0.00 | 70 | 1003.9 |
| 20260505062545 | 50 | 207 | 3.0 | 6.0 | 0.00 | 0.01 | 0.00 | 70 | 1003.8 |
| 20260505061546 | 51 | 219 | 4.0 | 8.0 | 0.00 | 0.01 | 0.00 | 68 | 1003.9 |
| 20260505061046 | 51 | 225 | 3.0 | 7.0 | 0.00 | 0.01 | 0.00 | 68 | 1003.9 |
| 20260505060540 | 52 | 213 | 3.0 | 7.0 | 0.00 | 0.01 | 0.00 | 67 | 1003.8 |
| 20260505060038 | 52 | 209 | 3.0 | 6.0 | 0.00 | 0.01 | 0.00 | 67 | 1003.8 |
| 20260505055538 | 52 | 220 | 4.0 | 8.0 | 0.00 | 0.01 | 0.00 | 66 | 1003.9 |
| 20260505055036 | 52 | 192 | 4.0 | 8.0 | 0.00 | 0.01 | 0.00 | 66 | 1003.9 |
| 20260505054759 | 52 | 213 | 4.0 | 10.0 | 0.00 | 0.01 | 0.00 | 66 | 1003.8 |
| 20260505054035 | 52 | 212 | 4.0 | 10.0 | 0.00 | 0.01 | 0.00 | 66 | 1003.9 |
| 20260505053536 | 52 | 220 | 5.0 | 13.0 | 0.00 | 0.01 | 0.00 | 66 | 1003.8 |
| 20260505053036 | 52 | 206 | 5.0 | 13.0 | 0.00 | 0.01 | 0.00 | 66 | 1003.9 |
| 20260505052536 | 51 | 213 | 4.0 | 8.0 | 0.00 | 0.01 | 0.00 | 67 | 1003.9 |
| 20260505052036 | 52 | 221 | 4.0 | 8.0 | 0.00 | 0.01 | 0.00 | 67 | 1003.8 |
| 20260505051536 | 52 | 212 | 4.0 | 8.0 | 0.00 | 0.01 | 0.00 | 66 | 1003.9 |
| 20260505051036 | 52 | 189 | 5.0 | 8.0 | 0.00 | 0.01 | 0.00 | 66 | 1003.9 |
| 20260505050536 | 52 | 211 | 5.0 | 9.0 | 0.00 | 0.01 | 0.00 | 66 | 1003.9 |
| 20260505041758 | 49 | 213 | 2.0 | 4.0 | 0.00 | 0.01 | 0.00 | 72 | 1004.0 |
| 20260505041035 | 49 | 213 | 2.0 | 4.0 | 0.00 | 0.01 | 0.00 | 73 | 1003.9 |
| 20260505040754 | 49 | 215 | 2.0 | 4.0 | 0.00 | 0.01 | 0.00 | 73 | 1003.9 |
| 20260505040036 | 49 | 215 | 2.0 | 4.0 | 0.00 | 0.01 | 0.00 | 72 | 1003.9 |
| 20260505035036 | 49 | 217 | 2.0 | 3.0 | 0.00 | 0.01 | 0.01 | 73 | 1003.9 |
| 20260505034534 | 49 | 217 | 2.0 | 4.0 | 0.00 | 0.01 | 0.01 | 73 | 1003.9 |
| 20260505034032 | 49 | 217 | 1.0 | 4.0 | 0.00 | 0.01 | 0.01 | 71 | 1003.9 |
| 20260505033533 | 50 | 219 | 1.0 | 3.0 | 0.00 | 0.01 | 0.01 | 70 | 1003.9 |
| 20260505033031 | 50 | 219 | 1.0 | 3.0 | 0.00 | 0.01 | 0.01 | 69 | 1003.9 |
| 20260505032528 | 51 | 219 | 0.0 | 3.0 | 0.00 | 0.01 | 0.01 | 69 | 1003.9 |
| 20260505032027 | 51 | 219 | 1.0 | 3.0 | 0.00 | 0.01 | 0.01 | 68 | 1004.0 |
| 20260505031528 | 51 | 219 | 2.0 | 3.0 | 0.00 | 0.01 | 0.01 | 68 | 1004.0 |
| 20260505031245 | 51 | 220 | 2.0 | 3.0 | 0.00 | 0.01 | 0.01 | 69 | 1004.0 |
| 20260505030528 | 50 | 219 | 2.0 | 4.0 | 0.00 | 0.01 | 0.01 | 70 | 1004.0 |
| 20260505030025 | 50 | 220 | 2.0 | 4.0 | 0.00 | 0.01 | 0.01 | 70 | 1004.0 |
| 20260505025753 | 51 | 217 | 1.0 | 4.0 | 0.00 | 0.01 | 0.01 | 68 | 1004.1 |
| 20260505024523 | 50 | 236 | 1.0 | 4.0 | 0.00 | 0.01 | 0.01 | 70 | 1004.1 |
| 20260505024243 | 51 | 237 | 1.0 | 4.0 | 0.00 | 0.01 | 0.01 | 69 | 1004.1 |
| 20260505023524 | 51 | 236 | 1.0 | 3.0 | 0.00 | 0.01 | 0.01 | 69 | 1004.1 |
| 20260505023024 | 51 | 236 | 2.0 | 4.0 | 0.00 | 0.01 | 0.01 | 68 | 1004.1 |
| 20260505022524 | 51 | 237 | 2.0 | 5.0 | 0.00 | 0.01 | 0.01 | 68 | 1004.2 |
| 20260505022024 | 51 | 238 | 3.0 | 7.0 | 0.00 | 0.01 | 0.01 | 68 | 1004.2 |
| 20260505021521 | 51 | 242 | 2.0 | 7.0 | 0.00 | 0.01 | 0.01 | 69 | 1004.2 |
| 20260505021021 | 51 | 245 | 2.0 | 4.0 | 0.00 | 0.01 | 0.01 | 69 | 1004.4 |
| 20260505020522 | 51 | 246 | 2.0 | 4.0 | 0.00 | 0.01 | 0.01 | 68 | 1004.5 |
| 20260505020022 | 51 | 248 | 2.0 | 4.0 | 0.00 | 0.01 | 0.01 | 68 | 1004.6 |
| 20260505015522 | 51 | 258 | 2.0 | 4.0 | 0.00 | 0.01 | 0.01 | 68 | 1004.6 |
| 20260505015022 | 51 | 239 | 2.0 | 6.0 | 0.00 | 0.01 | 0.01 | 68 | 1004.6 |
| 20260505014741 | 51 | 271 | 2.0 | 6.0 | 0.00 | 0.01 | 0.01 | 67 | 1004.6 |
| 20260505014018 | 51 | 244 | 2.0 | 5.0 | 0.00 | 0.01 | 0.01 | 66 | 1004.7 |
| 20260505013518 | 52 | 244 | 2.0 | 4.0 | 0.00 | 0.01 | 0.01 | 65 | 1004.5 |
| 20260505013018 | 52 | 218 | 1.0 | 3.0 | 0.00 | 0.01 | 0.01 | 64 | 1004.4 |
| 20260505012518 | 53 | 218 | 1.0 | 3.0 | 0.00 | 0.01 | 0.01 | 62 | 1004.4 |
| 20260505012236 | 53 | 218 | 1.0 | 3.0 | 0.00 | 0.01 | 0.01 | 62 | 1004.2 |
| 20260505011517 | 54 | 218 | 1.0 | 2.0 | 0.00 | 0.01 | 0.01 | 62 | 1004.2 |
| 20260505011017 | 54 | 218 | 1.0 | 2.0 | 0.00 | 0.01 | 0.01 | 60 | 1004.2 |
| 20260505010518 | 54 | 218 | 2.0 | 3.0 | 0.00 | 0.01 | 0.01 | 59 | 1004.2 |
| 20260505010018 | 55 | 218 | 2.0 | 5.0 | 0.00 | 0.01 | 0.01 | 58 | 1004.1 |
| 20260505005747 | 55 | 218 | 3.0 | 5.0 | 0.00 | 0.01 | 0.01 | 57 | 1004.2 |
| 20260505005018 | 56 | 209 | 3.0 | 6.0 | 0.00 | 0.01 | 0.01 | 58 | 1004.2 |
| 20260505004517 | 56 | 223 | 3.0 | 6.0 | 0.00 | 0.01 | 0.01 | 57 | 1004.1 |
| 20260505004017 | 56 | 217 | 3.0 | 6.0 | 0.00 | 0.01 | 0.01 | 57 | 1004.0 |
| 20260505003518 | 56 | 217 | 3.0 | 6.0 | 0.00 | 0.01 | 0.01 | 55 | 1003.9 |
| 20260505003017 | 56 | 223 | 3.0 | 6.0 | 0.00 | 0.01 | 0.01 | 56 | 1003.9 |
| 20260505002517 | 57 | 221 | 3.0 | 6.0 | 0.00 | 0.01 | 0.01 | 54 | 1003.9 |
| 20260505002017 | 57 | 223 | 4.0 | 6.0 | 0.00 | 0.01 | 0.01 | 53 | 1003.8 |
| 20260505001521 | 58 | 223 | 4.0 | 7.0 | 0.00 | 0.01 | 0.01 | 52 | 1003.8 |
| 20260505001017 | 58 | 225 | 3.0 | 7.0 | 0.00 | 0.01 | 0.01 | 52 | 1003.8 |
| 20260505000518 | 58 | 221 | 4.0 | 9.0 | 0.00 | 0.01 | 0.01 | 51 | 1003.7 |
| 20260505000017 | 59 | 230 | 4.0 | 9.0 | 0.00 | 0.01 | 0.01 | 50 | 1003.7 |
| 20260504235518 | 59 | 221 | 4.0 | 8.0 | 0.00 | 0.01 | 0.01 | 50 | 1003.7 |
| 20260504235017 | 60 | 232 | 4.0 | 8.0 | 0.00 | 0.01 | 0.01 | 49 | 1003.7 |
| 20260504234516 | 60 | 237 | 4.0 | 8.0 | 0.00 | 0.01 | 0.01 | 48 | 1003.6 |
| 20260504234013 | 60 | 243 | 5.0 | 9.0 | 0.00 | 0.01 | 0.01 | 48 | 1003.7 |
| 20260504233512 | 61 | 267 | 4.0 | 9.0 | 0.00 | 0.01 | 0.01 | 46 | 1003.6 |
| 20260504233011 | 61 | 239 | 5.0 | 10.0 | 0.00 | 0.01 | 0.01 | 46 | 1003.6 |
| 20260504232509 | 62 | 224 | 6.0 | 13.0 | 0.00 | 0.01 | 0.01 | 45 | 1003.5 |
| 20260504232010 | 62 | 232 | 7.0 | 14.0 | 0.00 | 0.01 | 0.01 | 44 | 1003.4 |
| 20260504231509 | 62 | 229 | 7.0 | 14.0 | 0.00 | 0.01 | 0.01 | 44 | 1003.3 |
| 20260504231010 | 62 | 209 | 8.0 | 16.0 | 0.00 | 0.01 | 0.01 | 43 | 1003.3 |
| 20260504230509 | 62 | 238 | 10.0 | 20.0 | 0.00 | 0.01 | 0.01 | 43 | 1003.3 |
| 20260504230010 | 62 | 239 | 10.0 | 20.0 | 0.00 | 0.01 | 0.01 | 42 | 1003.3 |
| 20260504225510 | 63 | 223 | 9.0 | 19.0 | 0.00 | 0.01 | 0.01 | 41 | 1003.3 |
| 20260504225009 | 63 | 240 | 10.0 | 20.0 | 0.00 | 0.01 | 0.01 | 43 | 1003.1 |
| 20260504224510 | 64 | 244 | 11.0 | 20.0 | 0.00 | 0.01 | 0.01 | 39 | 1003.0 |
| 20260504224010 | 64 | 209 | 10.0 | 18.0 | 0.00 | 0.01 | 0.01 | 39 | 1003.0 |
| 20260504223509 | 65 | 245 | 8.0 | 17.0 | 0.00 | 0.01 | 0.01 | 39 | 1002.9 |
| 20260504223009 | 65 | 175 | 7.0 | 14.0 | 0.00 | 0.01 | 0.01 | 39 | 1003.0 |
| 20260504222508 | 65 | 235 | 7.0 | 17.0 | 0.00 | 0.01 | 0.01 | 39 | 1002.9 |
| 20260504222009 | 65 | 238 | 8.0 | 21.0 | 0.00 | 0.01 | 0.01 | 38 | 1002.9 |
| 20260504221506 | 65 | 268 | 9.0 | 21.0 | 0.00 | 0.01 | 0.01 | 38 | 1002.9 |
| 20260504221004 | 64 | 211 | 8.0 | 17.0 | 0.00 | 0.01 | 0.01 | 40 | 1002.8 |
| 20260504220504 | 64 | 222 | 9.0 | 23.0 | 0.00 | 0.01 | 0.01 | 41 | 1002.9 |
| 20260504215958 | 65 | 258 | 10.0 | 23.0 | 0.00 | 0.01 | 0.01 | 38 | 1002.9 |
| 20260504215448 | 65 | 236 | 8.0 | 18.0 | 0.00 | 0.01 | 0.01 | 39 | 1002.9 |
| 20260504214942 | 65 | 207 | 8.0 | 18.0 | 0.00 | 0.01 | 0.01 | 40 | 1002.9 |
| 20260504214435 | 65 | 204 | 11.0 | 18.0 | 0.00 | 0.01 | 0.01 | 40 | 1003.0 |
| 20260504213926 | 65 | 240 | 11.0 | 17.0 | 0.00 | 0.01 | 0.01 | 40 | 1002.9 |
| 20260504213419 | 65 | 268 | 10.0 | 20.0 | 0.00 | 0.01 | 0.01 | 42 | 1002.8 |
| 20260504212911 | 64 | 216 | 8.0 | 20.0 | 0.00 | 0.01 | 0.01 | 41 | 1002.9 |
| 20260504212402 | 64 | 258 | 8.0 | 19.0 | 0.00 | 0.01 | 0.01 | 44 | 1003.0 |
| 20260504211856 | 64 | 236 | 10.0 | 24.0 | 0.00 | 0.01 | 0.01 | 44 | 1002.9 |
| 20260504211350 | 64 | 187 | 9.0 | 17.0 | 0.00 | 0.01 | 0.01 | 45 | 1002.8 |
| 20260504210840 | 65 | 223 | 8.0 | 19.0 | 0.00 | 0.01 | 0.01 | 42 | 1002.9 |
| 20260504210335 | 65 | 217 | 9.0 | 19.0 | 0.00 | 0.01 | 0.01 | 44 | 1002.8 |
| 20260504205828 | 63 | 198 | 10.0 | 18.0 | 0.00 | 0.01 | 0.01 | 45 | 1002.9 |
| 20260504205318 | 63 | 239 | 11.0 | 22.0 | 0.00 | 0.01 | 0.01 | 45 | 1002.9 |
| 20260504204812 | 64 | 221 | 9.0 | 22.0 | 0.00 | 0.01 | 0.01 | 44 | 1002.8 |